COSMOS 2251 DEB, 33837

Orbit data source: Space-Track

COSMOS 2251 DEB, 33837 is space debris in LEO originally from a launch on Wed, 16 Jun 1993 UTC launched from the Plesetsk Missile And Space Complex (PKMTR). The debris from Iridium 33, an American commercial communications satellite, has been tracked extensively since its accidental collision with the defunct Russian satellite Cosmos 2251 in 2009. This event, occurring at high speed in low Earth orbit (LEO), generated thousands of pieces of space debris, significantly increasing the risk of further collisions. The Iridium 33 debris cloud has impacted space traffic management and orbital debris mitigation strategies, making it a subject of ongoing study in space situational awareness.

Loading next visibility...
Identifier
33837, 1993-036CE
Orbit
LEO
Country
Flag of CISCIS
Related business
Manufacturer
Unknown
Mission
Spacecraft
Bus & Motor
Unknown
Mass
Unknown
Launch date (UTC)
1993-06-16 (33 years ago)
Launch vehicle
Unknown
Launch site
Plesetsk Missile And Space Complex (PKMTR)
Object type
Payload
Rocket body
Debris
Shape & HBR
Unknown shape, 0.1 m
Radar Cross Section
Medium (>0.1 m² and <1 m²)

Expand to show TLE details & history
Last TLE update: 7 hours ago

TLE from 7 hours ago
0 COSMOS 2251 DEB
1 33837U 93036CE  26169.73396675  .00000512  00000-0  13540-3 0  9999
2 33837  74.0125  61.5443 0035058 237.4321 122.3453 14.51076975915225
Epoch: 2026-06-18T17:36Z
TLE epoch observation values (Epoch: 2026-06-18T17:36:54.727Z)
Latitude
0.00001°
Longitude
-109.65678°
Altitude
738.143 km
Speed
7.479 km/s
True Right ascension
04h 06m 10s
True Declination
0° 00' 00"
Sunlit
Object was in daylight at epoch
Visualization orbit readout
Latitude
Unknown
Longitude
Unknown
Altitude
Unknown
Speed
Unknown
Apparent Right ascension
Unknown
Apparent Declination
Unknown
Sunlit
N/A
Visualization observer readout
Local Sidereal Time
11:06:39
Azimuth
Unknown
Elevation
Unknown
Doppler factor
Unknown
Orbital elements
Apogee altitude
744.626 km
Perigee altitude
694.859 km
Semi-major axis
7,097.88 km
Eccentricity
0.00351
Inclination
74.0125°
RAAN
61.5443°
Arg. of periapsis
237.4321°
True anomaly
122.68391°
Mean anomaly
122.3453°
Eccentric anomaly
122.51468°
Mean motion
3.62953 °/min
Orbital period
99.19 mins
BSTAR
0.0001354

Documentation

Showing up to 5 results
|